This is the latest recevied weather packets stored in our database for station/object KQ4UWH. If no packets are shown the sender has not sent any weather packets the latest 10 day(s).
| Time | Temp. | Humidity | Pressure | Rain* | Wind** | Luminosity | Snow |
|---|---|---|---|---|---|---|---|
| 1777847212 | 22.78° C | 33% | 1239.7 hPa | 0 mm | - | 203 W/m² | - |
| 1777846909 | 23.33° C | 32% | 1239.7 hPa | 0 mm | - | 220 W/m² | - |
| 1777846608 | 23.33° C | 33% | 1239.7 hPa | 0 mm | - | 237 W/m² | - |
| 1777846305 | 23.33° C | 33% | 1239.7 hPa | 0 mm | - | 249 W/m² | - |
| 1777846001 | 22.22° C | 34% | 1239.7 hPa | 0 mm | - | 265 W/m² | - |
| 1777845698 | 21.67° C | 33% | 1239.7 hPa | 0 mm | - | 282 W/m² | - |
| 1777845395 | 22.22° C | 32% | 1239.7 hPa | 0 mm | - | 298 W/m² | - |
| 1777845092 | 22.78° C | 31% | 1239.7 hPa | 0 mm | - | 316 W/m² | - |
| 1777844791 | 22.22° C | 32% | 1239.7 hPa | 0 mm | - | 331 W/m² | - |
| 1777844486 | 22.22° C | 34% | 1239.7 hPa | 0 mm | - | 348 W/m² | - |
| 1777844186 | 22.22° C | 33% | 1239.7 hPa | 0 mm | - | 363 W/m² | - |
| 1777843882 | 23.33° C | 31% | 1239.7 hPa | 0 mm | - | 382 W/m² | - |
| 1777843579 | 23.33° C | 32% | 1239.7 hPa | 0 mm | - | 395 W/m² | - |
| 1777843277 | 22.78° C | 32% | 1239.7 hPa | 0 mm | - | 410 W/m² | - |
| 1777842974 | 23.33° C | 32% | 1239.7 hPa | 0 mm | - | 426 W/m² | - |
| 1777842669 | 22.78° C | 32% | 1239.7 hPa | 0 mm | - | 440 W/m² | - |
| 1777842366 | 22.78° C | 31% | 1239.7 hPa | 0 mm | - | 454 W/m² | - |
| 1777842062 | 22.22° C | 32% | 1239.7 hPa | 0 mm | - | 474 W/m² | - |
| 1777841758 | 22.22° C | 32% | 1239.7 hPa | 0 mm | - | 481 W/m² | - |
| 1777841455 | 22.22° C | 33% | 1239.7 hPa | 0 mm | - | 498 W/m² | - |
| 1777841152 | 22.78° C | 32% | 1239.7 hPa | 0 mm | - | 512 W/m² | - |
| 1777840849 | 22.22° C | 31% | 1239.7 hPa | 0 mm | - | 526 W/m² | - |
| 1777840546 | 21.67° C | 32% | 1239.7 hPa | 0 mm | - | 540 W/m² | - |
| 1777840243 | 21.11° C | 31% | 1239.7 hPa | 0 mm | - | 551 W/m² | - |
| 1777839941 | 21.11° C | 33% | 1239.7 hPa | 0 mm | - | 566 W/m² | - |
* Rain latest hour (hover to see other rain measurements)
** Current wind speed in m/s (hover to see current wind gust speed)